SCP
-0 0 0 -0 -0 -0 -0 0 0 0 0 0 0 0 0 0 0 0 0 0 0 0 0 0 -0 -0 -0 -0 -0 -0 -0 -0 -0
-0 -0 0 0 0 0 0 0 0 0 0 0 0 0 0 0 0 0 0 0 0 0 -0 0 -0 -0 0 -0 -0 -0 0 -0 -0
0 0 0 0 0 0 0 0 0 0 0 0 0 0 0 0 0 0 0 0 0 0 0 -0 -0 -0 -0 -0 -0 -0 -0 -0 -0
0 0 0 0 0 0 0 0 0 0 0 0 0 0 0 0 0 0 0 0 0 0 -0 -0 -0 -0 -0 -0 -0 0 0 0 0
0 0 0 0 0 0 0 0 0 0 0 0 0 0 0 0 0 0 0 0 0 0 0 0 -0 -0 0 0 0 0 0 0 0
0 0 0 0 0 0 0 0 0 0 0 0 0 0 0 0 0 0 0 0 0 -0 0 0 0 0 0 0 0 0 0 0 0
0 0 0 0 0 0 0 0 0 0 0 0 0 0 0 0 0 0 0 0 0 0 0 0 0 0 0 0 0 0 0 0 0
0 0 0 0 0 0 0 0 0 0 0 0 0 0 0 0 0 0 0 0 0 0 0 0 0 0 0 0 0 0 0 0 0
0 0 0 0 0 0 0 0 0 0 0 0 0 0 0 0 0 0 0 0 0 0 0 0 0 0 0 0 0 0 0 0 0
-0 0 0 0 0 0 0 0 0 0 0 0 0 0 0 0 0 0 0 0 0 -0 -0 0 0 0 0 0 0 0 0 0 0
-0 -0 -0 -0 -0 0 0 0 0 0 0 0 0 0 0 0 0 0 0 -0 0 -0 -0 -0 -0 0 0 0 0 0 0 0 0
0 -0 -0 -0 0 0 0 0 0 0 0 0 0 0 0 0 0 0 0 0 -0 -0 -0 -0 -0 -0 0 0 0 0 0 0 0
0 0 -0 0 0 0 0 0 0 0 0 0 0 0 0 0 0 0 0 -0 -0 -0 0 -0 -0 -0 0 0 0 0 0 0 0
0 0 -0 0 0 0 0 0 0 0 0 0 0 0 0 0 0 0 -0 -0 -0 -0 -0 -0 -0 0 0 0 0 0 0 0 0
0 0 0 0 0 0 0 0 0 0 0 0 0 0 0 0 0 0 0 -0 -0 -0 -0 -0 -0 0 0 0 0 0 0 0 0
0 0 0 0 0 0 0 0 0 0 0 0 0 0 0 0 0 0 0 -0 -0 -0 -0 -0 -0 -0 0 0 0 0 0 0 0
0 0 0 0 0 0 0 0 0 0 0 0 0 0 0 0 0 0 0 -0 -0 -0 -0 -0 -0 0 0 0 0 0 0 0 0
0 0 0 0 0 0 0 0 0 0 0 0 0 0 0 0 0 0 0 0 -0 -0 -0 -0 -0 0 0 0 0 0 0 0 0
0 0 0 0 0 0 0 0 0 0 0 0 0 0 0 0 0 0 0 0 -0 -0 -0 -0 0 0 0 0 0 0 0 0 0
0 0 0 0 0 0 0 0 0 0 0 0 0 0 0 0 0 0 0 0 0 0 0 0 0 0 0 0 0 0 0 0 0
Wind_Speed_500mb
20 21 20 21 23 22 26 28 28 28 29 35 27 31 30 27 35 40 39 37 33 34 34 34 33 28 24 20 15 13 10 7 6
18 19 20 21 22 22 22 26 25 22 19 29 30 32 28 29 29 36 36 29 29 35 28 32 31 30 29 27 25 25 22 19 17
20 20 22 22 23 25 23 21 19 20 21 25 29 30 28 26 25 25 32 30 27 27 28 29 29 29 29 28 27 25 25 22 21
20 20 20 20 20 22 24 23 20 20 22 21 24 25 25 23 24 24 25 26 26 27 27 28 28 29 28 26 26 25 21 22 19
19 19 17 16 17 17 19 21 20 20 21 20 22 22 20 19 22 21 22 23 24 24 23 25 26 26 23 24 23 22 22 21 20
16 17 15 14 13 13 15 18 17 16 17 17 18 20 17 17 18 19 20 19 18 18 21 21 22 22 21 21 21 20 20 20 19
15 14 14 12 11 11 12 14 13 14 14 13 14 14 15 15 14 15 16 15 15 15 15 16 18 18 19 19 19 19 18 18 18
13 12 11 10 9 9 9 10 11 11 12 12 12 12 12 12 11 11 12 12 13 12 12 14 17 17 17 18 19 18 19 20 22
12 12 11 11 10 10 10 10 11 13 13 11 12 11 11 11 10 10 11 12 13 13 13 15 16 16 15 17 18 17 17 18 19
16 13 13 12 12 11 11 12 12 14 14 14 13 13 12 12 11 10 13 14 16 16 15 15 14 13 14 14 13 13 14 15 17
18 16 15 14 13 12 12 13 13 15 14 15 15 15 14 14 13 13 14 16 18 18 16 13 13 11 10 10 9 10 10 13 13
19 19 17 16 14 14 14 14 13 14 16 17 17 16 15 16 16 16 16 17 18 17 16 12 9 8 6 5 5 6 7 10 13
24 21 20 19 16 15 15 16 16 16 17 17 19 17 17 19 19 18 18 20 18 17 14 11 9 7 4 1 1 3 6 10 14
24 25 23 23 19 18 19 19 19 19 18 20 22 22 22 24 25 22 21 23 21 19 14 12 12 10 6 5 3 1 5 10 14
28 29 29 28 24 22 22 21 22 22 22 24 25 25 26 27 28 27 24 26 24 20 15 14 14 13 11 9 5 1 4 9 14
30 31 33 31 27 23 25 26 26 25 25 26 27 27 28 28 29 31 28 26 29 23 19 17 17 17 14 13 8 4 3 7 11
35 34 34 35 34 31 30 30 29 30 27 25 21 14 25 31 33 36 31 30 34 29 24 22 21 19 18 16 11 7 4 6 10
39 39 37 37 39 37 35 34 34 32 30 28 22 11 10 13 33 38 38 33 36 37 31 27 25 23 23 20 15 12 8 7 10
41 41 42 42 41 42 40 39 39 38 35 34 33 37 23 8 9 29 39 39 40 40 40 34 30 28 28 25 21 17 13 11 12
43 44 45 46 46 45 44 45 45 43 43 42 40 37 43 44 30 23 21 42 43 42 44 41 37 34 32 30 27 22 18 17 16
Wind_Direction_500mb
119 111 105 102 100 98 100 106 109 110 106 106 97 102 98 104 104 103 104 95 95 91 89 95 97 108 117 129 146 141 144 167 183
117 113 110 106 107 107 113 118 119 115 105 108 103 99 105 104 102 105 102 99 101 97 91 92 94 98 100 101 102 100 103 102 98
109 103 98 97 98 109 112 113 126 122 111 111 112 108 107 103 99 101 108 106 97 102 100 100 98 98 94 90 89 87 84 83 78
113 105 99 97 101 104 109 114 120 118 116 107 108 106 104 102 100 97 98 100 102 101 101 101 100 95 91 89 85 85 84 82 76
116 112 107 107 108 113 121 122 122 123 121 118 118 113 105 103 99 97 93 93 96 95 98 96 93 91 90 90 86 83 79 75 70
131 127 127 125 123 129 128 125 123 126 129 123 121 117 117 115 108 102 99 95 94 96 92 96 97 94 93 88 86 81 73 70 64
150 144 146 144 146 150 144 146 136 129 132 128 124 126 124 120 115 111 107 104 99 99 99 103 102 104 98 94 89 80 69 60 52
167 162 159 156 167 164 161 158 162 158 152 152 145 146 138 134 134 124 123 118 119 121 126 126 123 117 106 99 87 72 58 45 38
196 183 182 182 188 191 189 189 186 180 172 171 162 161 157 153 154 149 147 144 141 142 143 143 134 119 102 86 71 60 47 40 31
207 201 201 201 199 201 201 205 197 193 188 185 181 183 179 178 177 171 171 165 162 157 158 146 125 110 91 78 69 55 42 31 21
217 218 216 218 208 208 209 208 206 204 206 204 202 202 201 197 192 188 186 177 174 167 162 144 131 114 92 78 60 45 31 21 11
233 228 229 223 214 213 214 217 216 223 221 219 218 212 212 208 204 199 197 188 182 177 162 148 139 122 97 75 59 43 23 20 15
237 234 233 230 223 222 223 229 231 231 230 232 229 227 227 221 210 207 205 197 187 184 167 163 155 151 160 141 81 39 27 26 20
246 240 234 234 227 226 229 235 236 240 242 241 240 238 235 228 215 211 212 206 196 188 178 177 177 182 193 206 206 62 33 23 18
249 240 235 237 233 232 238 242 244 246 250 251 251 247 240 232 221 212 211 212 204 198 196 191 193 196 201 207 210 195 22 16 11
252 245 240 241 241 242 243 244 245 248 253 261 261 256 248 236 224 214 212 215 212 208 205 200 204 205 208 212 215 229 344 1 3
253 250 247 248 249 246 245 246 249 252 255 259 268 279 251 239 231 225 223 224 221 216 215 213 215 214 216 221 222 234 271 322 344
258 255 251 250 252 250 249 250 252 256 256 254 245 258 256 269 239 236 231 233 229 222 222 221 222 221 221 224 228 236 251 292 316
262 259 254 252 253 254 251 252 252 254 253 253 247 243 261 297 281 242 234 238 236 231 229 229 227 227 226 226 230 234 248 270 288
263 261 257 254 254 255 255 252 251 254 255 252 253 253 255 256 266 277 257 244 244 242 237 235 232 232 229 229 231 238 246 256 270
Wind_Speed_850mb
20 21 20 21 23 22 26 28 28 28 29 35 27 31 30 27 35 40 39 37 33 34 34 34 33 28 24 20 15 13 10 7 6
18 19 20 21 22 22 22 26 25 22 19 29 30 32 28 29 29 36 36 29 29 35 28 32 31 30 29 27 25 25 22 19 17
20 20 22 22 23 25 23 21 19 20 21 25 29 30 28 26 25 25 32 30 27 27 28 29 29 29 29 28 27 25 25 22 21
20 20 20 20 20 22 24 23 20 20 22 21 24 25 25 23 24 24 25 26 26 27 27 28 28 29 28 26 26 25 21 22 19
19 19 17 16 17 17 19 21 20 20 21 20 22 22 20 19 22 21 22 23 24 24 23 25 26 26 23 24 23 22 22 21 20
16 17 15 14 13 13 15 18 17 16 17 17 18 20 17 17 18 19 20 19 18 18 21 21 22 22 21 21 21 20 20 20 19
15 14 14 12 11 11 12 14 13 14 14 13 14 14 15 15 14 15 16 15 15 15 15 16 18 18 19 19 19 19 18 18 18
13 12 11 10 9 9 9 10 11 11 12 12 12 12 12 12 11 11 12 12 13 12 12 14 17 17 17 18 19 18 19 20 22
12 12 11 11 10 10 10 10 11 13 13 11 12 11 11 11 10 10 11 12 13 13 13 15 16 16 15 17 18 17 17 18 19
16 13 13 12 12 11 11 12 12 14 14 14 13 13 12 12 11 10 13 14 16 16 15 15 14 13 14 14 13 13 14 15 17
18 16 15 14 13 12 12 13 13 15 14 15 15 15 14 14 13 13 14 16 18 18 16 13 13 11 10 10 9 10 10 13 13
19 19 17 16 14 14 14 14 13 14 16 17 17 16 15 16 16 16 16 17 18 17 16 12 9 8 6 5 5 6 7 10 13
24 21 20 19 16 15 15 16 16 16 17 17 19 17 17 19 19 18 18 20 18 17 14 11 9 7 4 1 1 3 6 10 14
24 25 23 23 19 18 19 19 19 19 18 20 22 22 22 24 25 22 21 23 21 19 14 12 12 10 6 5 3 1 5 10 14
28 29 29 28 24 22 22 21 22 22 22 24 25 25 26 27 28 27 24 26 24 20 15 14 14 13 11 9 5 1 4 9 14
30 31 33 31 27 23 25 26 26 25 25 26 27 27 28 28 29 31 28 26 29 23 19 17 17 17 14 13 8 4 3 7 11
35 34 34 35 34 31 30 30 29 30 27 25 21 14 25 31 33 36 31 30 34 29 24 22 21 19 18 16 11 7 4 6 10
39 39 37 37 39 37 35 34 34 32 30 28 22 11 10 13 33 38 38 33 36 37 31 27 25 23 23 20 15 12 8 7 10
41 41 42 42 41 42 40 39 39 38 35 34 33 37 23 8 9 29 39 39 40 40 40 34 30 28 28 25 21 17 13 11 12
43 44 45 46 46 45 44 45 45 43 43 42 40 37 43 44 30 23 21 42 43 42 44 41 37 34 32 30 27 22 18 17 16
Wind_Direction_850mb
119 111 105 102 100 98 100 106 109 110 106 106 97 102 98 104 104 103 104 95 95 91 89 95 97 108 117 129 146 141 144 167 183
117 113 110 106 107 107 113 118 119 115 105 108 103 99 105 104 102 105 102 99 101 97 91 92 94 98 100 101 102 100 103 102 98
109 103 98 97 98 109 112 113 126 122 111 111 112 108 107 103 99 101 108 106 97 102 100 100 98 98 94 90 89 87 84 83 78
113 105 99 97 101 104 109 114 120 118 116 107 108 106 104 102 100 97 98 100 102 101 101 101 100 95 91 89 85 85 84 82 76
116 112 107 107 108 113 121 122 122 123 121 118 118 113 105 103 99 97 93 93 96 95 98 96 93 91 90 90 86 83 79 75 70
131 127 127 125 123 129 128 125 123 126 129 123 121 117 117 115 108 102 99 95 94 96 92 96 97 94 93 88 86 81 73 70 64
150 144 146 144 146 150 144 146 136 129 132 128 124 126 124 120 115 111 107 104 99 99 99 103 102 104 98 94 89 80 69 60 52
167 162 159 156 167 164 161 158 162 158 152 152 145 146 138 134 134 124 123 118 119 121 126 126 123 117 106 99 87 72 58 45 38
196 183 182 182 188 191 189 189 186 180 172 171 162 161 157 153 154 149 147 144 141 142 143 143 134 119 102 86 71 60 47 40 31
207 201 201 201 199 201 201 205 197 193 188 185 181 183 179 178 177 171 171 165 162 157 158 146 125 110 91 78 69 55 42 31 21
217 218 216 218 208 208 209 208 206 204 206 204 202 202 201 197 192 188 186 177 174 167 162 144 131 114 92 78 60 45 31 21 11
233 228 229 223 214 213 214 217 216 223 221 219 218 212 212 208 204 199 197 188 182 177 162 148 139 122 97 75 59 43 23 20 15
237 234 233 230 223 222 223 229 231 231 230 232 229 227 227 221 210 207 205 197 187 184 167 163 155 151 160 141 81 39 27 26 20
246 240 234 234 227 226 229 235 236 240 242 241 240 238 235 228 215 211 212 206 196 188 178 177 177 182 193 206 206 62 33 23 18
249 240 235 237 233 232 238 242 244 246 250 251 251 247 240 232 221 212 211 212 204 198 196 191 193 196 201 207 210 195 22 16 11
252 245 240 241 241 242 243 244 245 248 253 261 261 256 248 236 224 214 212 215 212 208 205 200 204 205 208 212 215 229 344 1 3
253 250 247 248 249 246 245 246 249 252 255 259 268 279 251 239 231 225 223 224 221 216 215 213 215 214 216 221 222 234 271 322 344
258 255 251 250 252 250 249 250 252 256 256 254 245 258 256 269 239 236 231 233 229 222 222 221 222 221 221 224 228 236 251 292 316
262 259 254 252 253 254 251 252 252 254 253 253 247 243 261 297 281 242 234 238 236 231 229 229 227 227 226 226 230 234 248 270 288
263 261 257 254 254 255 255 252 251 254 255 252 253 253 255 256 266 277 257 244 244 242 237 235 232 232 229 229 231 238 246 256 270